Regional Weather Roundup
Issued by NWS

Home | Current Version | Previous Version | Graphics & Text | Print | Product List | Glossary On
Versions: 1 2 3 4 5 6 7 8 9 10 11 12 13 14 15 16 17 18 19 20 21 22 23 24 25 26 27 28 29 30 31 32 33 34 35 36 37 38 39 40 41 42 43 44 45 46 47 48 49 50
000
ASUS43 KLOT 062108
RWRIL

ILLINOIS REGIONAL WEATHER ROUNDUP
NATIONAL WEATHER SERVICE CHICAGO/ROMEOVILLE IL
300 PM CST SAT FEB 06 2016

NOTE: "FAIR" INDICATES FEW OR NO CLOUDS BELOW 12,000 FEET WITH NO
SIGNIFICANT WEATHER AND/OR OBSTRUCTIONS TO VISIBILITY.

* THESE STATIONS ARE NOT UNDER NWS QUALITY CONTROL. THEY ALSO MAY NOT
  REPORT WEATHER SUCH AS PRECIPITATION OR FOG.

ILZ001-002-007-009-015-016-024-062200-
NORTHWEST ILLINOIS

CITY           SKY/WX    TMP DP  RH WIND       PRES   REMARKS
MOLINE         SUNNY     44  28  53 SW12      30.14F
STERLING*      SUNNY     45  28  53 SW12      30.12F
SAVANNA*       CLOUDY    37  30  76 W7        30.16S WCI  31
$$

ILZ003-004-008-010-011-017-018-062200-
NORTH CENTRAL ILLINOIS

CITY           SKY/WX    TMP DP  RH WIND       PRES   REMARKS
ROCKFORD       PTSUNNY   41  26  55 W10       30.16F
FREEPORT*      SUNNY     37  27  67 SW10      30.16S WCI  30
ROCHELLE*      SUNNY     41  30  66 W15       30.15S
DE KALB*       SUNNY     40  29  63 SW13      30.15S
PERU*          SUNNY     41  25  52 SW14      30.16F
$$

ILZ005-006-012>014-019>023-062200-
NORTHEAST ILLINOIS

CITY           SKY/WX    TMP DP  RH WIND       PRES   REMARKS
CHICAGO-OHARE  MOSUNNY   40  28  62 W16       30.15F
CHICAGO-MIDWAY MOSUNNY   42  27  55 SW13      30.17F
AURORA         SUNNY     42  29  59 SW12      30.16F
LANSING*       MOSUNNY   40  29  65 SW9       30.19S
JOLIET*        SUNNY     43  30  60 SW8       30.18F
WAUKEGAN       SUNNY     38  28  67 W6        30.14S WCI  33
DUPAGE AIRPORT SUNNY     40  27  59 SW12      30.15F
KANKAKEE*      SUNNY     43  30  60 SW12      30.20S
WHEELING       MOSUNNY   41  28  60 SW9       30.16F
MORRIS*          N/A     42  30  62 SW12      30.15F
ROMEOVILLE*    SUNNY     41  29  63 SW15      30.17F
NORTHERLY ISL    N/A     40  26  58 W14         N/A
$$

LMZ740>746-062200-
SOUTHERN LAKE MICHIGAN

STATION/POSITION SKY/WX   TEMP    WIND        PRES    VSBY  WAVE
                          AIR SEA DIR/SP/G                  HT/PER
                          (F)     (DEG/KT/KT) (MB)    (MI)  (FT/S)
HARRISON CRIB              39     240/  9/ 11   N/A
BURNHAM HARBOR             41     250/  7/ 14   N/A
CALUMET HARBOR             40     220/  9/ 15 1021.2F
BURNS HARBOR               38     230/ 12/ 20 1022.7F
MICHIGAN CITY              36     230/ 11/ 13   N/A
$$

ILZ025>027-034>036-040-047-049-050-058-095>099-062200-
WEST-CENTRAL ILLINOIS

CITY           SKY/WX    TMP DP  RH WIND       PRES   REMARKS
QUINCY         SUNNY     49  27  42 SW12      30.18F
GALESBURG*     SUNNY     46  29  51 SW10      30.15F
MACOMB*        SUNNY     47  30  51 SW10      30.19F
JACKSONVILLE*  SUNNY     52  32  45 SW9       30.18F
PITTSFIELD*    SUNNY     51  29  42 SW12      30.19F
$$

ILZ028>032-037-038-041>044-048-051>054-059>061-062200-
CENTRAL ILLINOIS

CITY           SKY/WX    TMP DP  RH WIND       PRES   REMARKS
PONTIAC        SUNNY     46  32  59 SW14      30.19S
BLOOMINGTON    SUNNY     47  31  54 SW12      30.19S
DECATUR        SUNNY     49  30  48 SW15      30.20F
PEORIA         SUNNY     47  24  40 SW12      30.18F
LACON*         SUNNY     46  26  46 SW9       30.16F
LINCOLN*       SUNNY     49  32  53 S6        30.19S
SPRINGFIELD    SUNNY     51  29  42 SW9       30.20S
TAYLORVILLE    SUNNY     50  34  53 SW14      30.20S
$$

ILZ033-039-045-046-055>057-062-063-062200-
EAST-CENTRAL ILLINOIS

CITY           SKY/WX    TMP DP  RH WIND       PRES   REMARKS
CHAMPAIGN      SUNNY     46  31  55 SW10      30.20F
RANTOUL*       SUNNY     46  33  59 SW10      30.19F
MATTOON        SUNNY     48  28  46 S10       30.20F
PARIS*         SUNNY     47  32  57 SW8       30.22F
$$

ILZ079-100>102-062200-
SOUTHWEST ILLINOIS

CITY           SKY/WX    TMP DP  RH WIND       PRES   REMARKS
BELLEVILLE     SUNNY     57  27  32 SW14      30.20F
CAHOKIA*       SUNNY     57  27  31 SW9G21    30.20F
SPARTA*        SUNNY     55  24  30 SW10G16   30.24S
$$

ILZ064>066-069>071-074>076-080>082-084>086-088>090-092>094-062200-
SOUTH-CENTRAL ILLINOIS

CITY           SKY/WX    TMP DP  RH WIND       PRES   REMARKS
CARBONDALE     SUNNY     55  20  25 SW8       30.24F
CAIRO*         SUNNY     53  29  39 SW8       30.28S
EFFINGHAM*     SUNNY     52  30  42 SW12      30.23F
MARION         SUNNY     57  19  23 W9        30.25F
MT. VERNON     SUNNY     54  27  35 SW6       30.25S
CENTRALIA*     SUNNY     55  29  37 SW12      30.22F
SALEM*         SUNNY     55  25  32 SW12      30.22F
METROPOLIS*    SUNNY     55  26  33 W10       30.28F
$$

ILZ067-068-072-073-078-083-087-091-062200-
SOUTHEAST ILLINOIS

CITY           SKY/WX    TMP DP  RH WIND       PRES   REMARKS
LAWRENCEVILLE  SUNNY     51  28  41 SW9       30.25F
FLORA*         SUNNY     55  29  37 SW6       30.24S
FAIRFIELD*     SUNNY     53  23  30 SW12      30.23F
HARRISBURG*    SUNNY     55  23  29 W3        30.26S
ROBINSON*      SUNNY     50  28  42 SW7       30.24F
CARMI*         SUNNY     53  27  35 SW6       30.25F
$$

ABBREVIATIONS USED IN REMARKS
   TC - TEMPERATURE IN CELSIUS
  WCI - WIND CHILL INDEX
   HX - HEAT INDEX
  VSB - VISIBILITY
$$




USA.gov is the U.S. government's official web portal to all federal, state and local government web resources and services.